KB3FCJ-2 Weather Reports


time (UTC)temp
C
wind
direction
speed
KPH
gust
KPH
rain 1hr
cm
rain 24hr
cm
rain mn
cm
humidity
%
barometer
mb
20260506221851 19 0 0.0 11.3 0.00 0.20 0.23 83 639.2
20260506220852 19 0 0.0 8.0 0.00 0.20 0.23 83 639.2
20260506215851 20 0 0.0 4.8 0.00 0.20 0.23 83 639.2
20260506214341 20 0 0.0 3.2 0.00 0.20 0.23 84 639.2
20260506213340 20 0 0.0 8.0 0.00 0.20 0.23 83 639.2
20260506212341 20 218 1.6 9.7 0.00 0.20 0.23 84 639.2
20260506211340 19 0 0.0 4.8 0.00 0.20 0.23 83 639.2
20260506210341 19 0 0.0 14.5 0.00 0.20 0.23 84 639.2
20260506205341 19 217 9.7 19.3 0.00 0.20 0.23 83 639.2
20260506204340 19 212 8.0 17.7 0.00 0.20 0.23 83 639.2
20260506203341 19 194 1.6 14.5 0.00 0.20 0.23 85 639.2
20260506201941 18 210 6.4 20.9 0.00 0.20 0.23 85 639.2
20260506200940 18 216 8.0 16.1 0.00 0.20 0.23 85 639.2
20260506195940 18 0 0.0 16.1 0.00 0.20 0.23 86 639.2
20260506194939 18 211 9.7 22.5 0.00 0.20 0.23 86 639.2
20260506193535 18 213 6.4 16.1 0.00 0.20 0.23 87 639.2
20260506192534 18 256 1.6 14.5 0.00 0.20 0.23 89 639.2
20260506191535 17 206 6.4 14.5 0.00 0.20 0.23 90 639.2
20260506190535 17 222 4.8 12.9 0.00 0.20 0.23 91 621.6
20260506185140 16 204 1.6 9.7 0.00 0.20 0.23 91 826.3
20260506184140 16 192 4.8 16.1 0.00 0.20 0.23 91 826.3
20260506183140 16 217 3.2 12.9 0.00 0.20 0.23 92 826.3
20260506182140 16 223 4.8 17.7 0.00 0.20 0.23 92 826.3
20260506180727 16 215 4.8 14.5 0.00 0.20 0.23 93 826.3
20260506175727 16 161 4.8 9.7 0.00 0.20 0.23 93 826.3
20260506174727 16 200 6.4 16.1 0.00 0.20 0.23 93 826.3
20260506173727 16 221 1.6 17.7 0.00 0.20 0.23 94 826.3
20260506172312 16 0 0.0 12.9 0.00 0.20 0.23 94 826.3
20260506171312 16 0 0.0 8.0 0.00 0.20 0.23 94 826.3
20260506170312 16 209 3.2 12.9 0.00 0.20 0.23 94 826.3
20260506165312 16 187 6.4 11.3 0.00 0.20 0.23 94 826.3
20260506163906 16 0 0.0 11.3 0.03 0.20 0.23 95 826.3
20260506162905 16 189 4.8 17.7 0.05 0.20 0.23 95 826.3
20260506161905 16 147 3.2 9.7 0.05 0.20 0.23 95 826.3
20260506160905 16 0 0.0 1.6 0.08 0.20 0.23 94 826.3
20260506155512 15 0 0.0 9.7 0.10 0.20 0.20 94 826.3
20260506154512 15 0 0.0 1.6 0.10 0.18 0.18 94 826.3
20260506153512 16 0 0.0 1.6 0.10 0.18 0.18 94 826.3
20260506152513 16 0 0.0 3.2 0.10 0.15 0.15 93 826.3
20260506151345 15 0 0.0 9.7 0.10 0.13 0.13 92 826.3
20260506150345 16 0 0.0 8.0 0.10 0.13 0.13 91 826.3
20260506145345 16 0 0.0 9.7 0.10 0.10 0.10 91 826.3
20260506144345 16 0 0.0 8.0 0.08 0.08 0.08 90 826.3
20260506143346 16 0 0.0 11.3 0.05 0.05 0.05 89 826.3
20260506142345 16 198 1.6 11.3 0.05 0.05 0.05 89 826.3
20260506141345 16 0 0.0 11.3 0.03 0.03 0.03 87 826.3
20260506140345 17 0 0.0 9.7 0.03 0.03 0.03 85 826.3
20260506134942 17 197 3.2 17.7 0.00 0.00 0.00 81 826.3
20260506133942 17 211 3.2 9.7 0.00 0.00 0.00 81 826.3
20260506132942 17 197 3.2 14.5 0.00 0.00 0.00 81 1096.4
20260506131942 17 203 1.6 12.9 0.00 0.00 0.00 82 1096.4
20260506130535 17 210 3.2 9.7 0.00 0.00 0.00 81 1096.4
20260506125535 17 163 1.6 12.9 0.00 0.00 0.00 81 1096.4
20260506124536 17 210 8.0 17.7 0.00 0.00 0.00 80 1096.4
20260506123535 17 194 4.8 12.9 0.00 0.00 0.00 80 1096.4
20260506122126 18 203 14.5 32.2 0.00 0.00 0.00 79 1096.4
20260506121126 18 206 11.3 25.7 0.00 0.00 0.00 79 1096.4
20260506120126 17 189 4.8 19.3 0.00 0.00 0.00 79 1096.4
20260506115127 18 209 3.2 12.9 0.00 0.00 0.00 80 844.6
20260506113721 17 199 4.8 38.6 0.00 0.00 0.00 80 844.6
20260506112722 17 183 1.6 19.3 0.00 0.00 0.00 80 844.6
20260506111721 17 0 0.0 17.7 0.00 0.00 0.00 80 844.6
20260506110721 17 204 6.4 11.3 0.00 0.00 0.00 81 844.6
20260506105317 17 0 0.0 22.5 0.00 0.00 0.00 80 844.6
20260506104316 17 0 0.0 14.5 0.00 0.00 0.00 80 844.6
20260506103317 17 161 4.8 12.9 0.00 0.00 0.00 80 844.6
20260506102316 17 177 3.2 17.7 0.00 0.00 0.00 80 844.6
20260506095910 17 0 0.0 12.9 0.00 0.00 0.00 80 844.6
20260506094909 17 0 0.0 11.3 0.00 0.00 0.00 80 844.6
20260506093910 17 199 1.6 16.1 0.00 0.00 0.00 80 844.6
20260506092516 17 0 0.0 9.7 0.00 0.00 0.00 79 844.6
20260506091517 17 0 0.0 9.7 0.00 0.00 0.00 78 844.6
20260506090517 18 0 0.0 8.0 0.00 0.00 0.00 78 844.6
20260506085516 18 0 0.0 17.7 0.00 0.00 0.00 77 844.6
20260506084112 18 226 1.6 16.1 0.00 0.00 0.00 76 844.6
20260506083111 18 208 1.6 9.7 0.00 0.00 0.00 76 844.6
20260506082112 18 200 4.8 32.2 0.00 0.00 0.00 76 844.6
20260506081112 18 0 0.0 12.9 0.00 0.00 0.00 77 844.6
20260506072709 18 0 0.0 12.9 0.00 0.00 0.00 77 844.6
20260506071302 18 0 0.0 17.7 0.00 0.00 0.00 76 844.6
20260506070302 18 0 0.0 6.4 0.00 0.00 0.00 76 844.6
20260506061909 18 0 0.0 3.2 0.00 0.00 0.00 74 844.6
20260506060909 18 0 0.0 6.4 0.00 0.00 0.00 73 844.6
20260506045101 19 0 0.0 3.2 0.00 0.00 0.00 68 844.6
20260506044101 19 0 0.0 1.6 0.00 0.00 0.00 67 844.6
20260506043101 19 0 0.0 0.0 0.00 0.00 0.00 67 844.6
20260506041655 19 0 0.0 3.2 0.00 0.00 0.00 67 844.6
20260506040654 19 0 0.0 1.6 0.00 0.00 0.00 67 844.6
20260506035654 19 0 0.0 3.2 0.00 0.00 0.00 67 844.6
20260506034654 19 0 0.0 3.2 0.00 0.00 0.00 66 844.6
20260506033301 19 0 0.0 1.6 0.00 0.00 0.00 66 844.6
20260506032301 19 0 0.0 1.6 0.00 0.00 0.00 66 844.6
20260506031302 19 0 0.0 1.6 0.00 0.00 0.00 66 844.6
20260506030301 19 0 0.0 6.4 0.00 0.00 0.00 66 844.6
20260506024856 20 0 0.0 1.6 0.00 0.00 0.00 65 844.6
20260506023856 20 0 0.0 1.6 0.00 0.00 0.00 64 844.6
20260506022856 20 0 0.0 1.6 0.00 0.00 0.00 64 844.6
20260506021857 20 0 0.0 3.2 0.00 0.00 0.00 63 844.6
20260506020451 20 0 0.0 3.2 0.00 0.00 0.00 62 844.6
20260506015452 20 0 0.0 1.6 0.00 0.00 0.00 61 844.6
20260506014451 21 0 0.0 1.6 0.00 0.00 0.00 61 844.6
20260506013451 21 0 0.0 1.6 0.00 0.00 0.00 60 844.6
20260506012047 21 0 0.0 3.2 0.00 0.00 0.00 58 678.1
20260506011046 21 0 0.0 1.6 0.00 0.00 0.00 58 678.1
20260506010047 21 0 0.0 0.0 0.00 0.00 0.00 57 678.1
20260506005046 22 0 0.0 1.6 0.00 0.00 0.00 56 678.1
20260506003640 22 0 0.0 6.4 0.00 0.00 0.00 55 678.1
20260506002640 22 0 0.0 12.9 0.00 0.00 0.00 54 678.1
20260506001639 23 0 0.0 3.2 0.00 0.00 0.00 53 678.1
20260506000640 23 0 0.0 1.6 0.00 0.00 0.00 51 678.1
20260505235231 23 0 0.0 1.6 0.00 0.00 0.00 49 829.0
20260505234231 23 0 0.0 1.6 0.00 0.00 0.00 50 829.0
20260505233231 24 0 0.0 3.2 0.00 0.00 0.00 49 829.0
20260505232230 24 0 0.0 1.6 0.00 0.00 0.00 47 829.0
20260505230824 25 0 0.0 8.0 0.00 0.00 0.00 46 829.0
20260505225824 25 0 0.0 3.2 0.00 0.00 0.00 46 829.0
20260505224824 25 229 1.6 4.8 0.00 0.00 0.00 45 829.0
20260505223824 26 195 3.2 9.7 0.00 0.00 0.00 44 829.0
20260505222421 26 210 1.6 12.9 0.00 0.00 0.00 44 829.0